GW2967 Weather Reports


Display with metric or nautical units.
time (UTC)temp
F
wind
direction
speed
MPH
gust
MPH
rain 1hr
in
rain 24hr
in
rain mn
in
humidity
%
barometer
mb
20260507234530 55 0 0.0 0.0 0.00 0.06 0.06 39 1008.1
20260507233039 56 0 0.0 1.0 0.00 0.06 0.06 36 1007.7
20260507230028 57 0 0.0 2.0 0.00 0.06 0.06 34 1007.8
20260507224540 58 0 0.0 3.0 0.00 0.06 0.06 32 1007.7
20260507223033 59 271 0.0 4.0 0.00 0.06 0.06 30 1007.5
20260507221535 59 117 0.0 2.0 0.00 0.06 0.06 28 1007.5
20260507220028 60 223 0.0 4.0 0.00 0.06 0.06 33 1007.6
20260507214531 61 82 0.0 5.0 0.00 0.06 0.06 28 1007.6
20260507213041 62 113 0.0 6.0 0.00 0.06 0.06 31 1007.5
20260507211531 59 91 2.0 7.0 0.00 0.06 0.06 29 1007.6
20260507210030 61 110 1.0 4.0 0.00 0.06 0.06 30 1007.5
20260507204530 61 227 1.0 4.0 0.00 0.06 0.06 27 1007.6
20260507203038 63 97 1.0 3.0 0.00 0.06 0.06 28 1007.5
20260507201531 62 95 1.0 13.0 0.00 0.06 0.06 29 1007.6
20260507200034 62 250 3.0 8.0 0.00 0.06 0.06 28 1007.8
20260507194529 61 115 1.0 5.0 0.00 0.06 0.06 28 1007.9
20260507193028 65 0 0.0 3.0 0.00 0.06 0.06 29 1008.1
20260507191528 64 205 1.0 5.0 0.00 0.06 0.06 25 1008.1
20260507190032 63 105 2.0 7.0 0.00 0.06 0.06 27 1008.2
20260507184529 64 113 2.0 9.0 0.00 0.10 0.06 28 1008.4
20260507183030 64 105 1.0 6.0 0.00 0.10 0.06 31 1008.6
20260507181532 64 91 1.0 6.0 0.00 0.10 0.06 27 1008.7
20260507180034 63 15 0.0 8.0 0.00 0.10 0.06 30 1008.8
20260507174534 62 124 2.0 5.0 0.00 0.18 0.06 27 1008.9
20260507173032 62 115 1.0 7.0 0.00 0.18 0.06 35 1009.3
20260507171529 63 208 1.0 5.0 0.00 0.18 0.06 29 1009.4
20260507170030 62 198 1.0 8.0 0.00 0.18 0.06 33 1009.5
20260507164534 60 210 1.0 8.0 0.00 0.26 0.06 32 1009.8
20260507163030 59 115 2.0 11.0 0.00 0.26 0.06 33 1009.9
20260507161530 59 0 1.0 8.0 0.00 0.26 0.06 34 1010.1
20260507160028 59 125 5.0 11.0 0.00 0.26 0.06 29 1010.2
20260507154531 59 110 1.0 5.0 0.00 0.40 0.06 37 1010.6
20260507153027 58 142 3.0 7.0 0.00 0.40 0.06 29 1011.0
20260507151533 57 65 2.0 11.0 0.00 0.40 0.06 34 1011.1
20260507150031 57 118 1.0 6.0 0.00 0.40 0.06 36 1011.3
20260507144533 57 127 1.0 5.0 0.00 0.47 0.06 37 1011.5
20260507143035 56 84 1.0 6.0 0.00 0.47 0.06 38 1011.5
20260507141531 54 0 2.0 8.0 0.00 0.47 0.06 40 1011.7
20260507140032 55 89 1.0 8.0 0.00 0.47 0.06 35 1012.0
20260507134532 54 5 0.0 6.0 0.00 0.54 0.06 40 1012.1
20260507133028 53 119 1.0 7.0 0.00 0.54 0.06 41 1012.0
20260507131534 53 0 1.0 6.0 0.00 0.54 0.06 43 1012.0
20260507130029 52 148 1.0 6.0 0.00 0.54 0.06 45 1012.0
20260507124532 52 101 1.0 6.0 0.00 0.56 0.06 47 1012.0
20260507123028 51 136 1.0 5.0 0.00 0.56 0.06 47 1011.9
20260507121531 50 148 1.0 7.0 0.00 0.56 0.06 49 1011.8
20260507120033 50 121 0.0 7.0 0.00 0.56 0.06 51 1011.9
20260507114532 50 0 0.0 3.0 0.00 0.57 0.06 54 1011.6
20260507113028 48 0 0.0 4.0 0.00 0.57 0.06 58 1011.6
20260507111531 47 0 2.0 7.0 0.00 0.57 0.06 58 1011.5
20260507110028 46 213 0.0 7.0 0.00 0.57 0.06 61 1011.3
20260507104531 45 181 0.0 7.0 0.00 0.57 0.06 63 1011.1
20260507103033 45 127 0.0 3.0 0.00 0.57 0.06 64 1010.8
20260507101531 45 0 0.0 4.0 0.00 0.57 0.06 64 1010.7
20260507100034 46 79 2.0 6.0 0.00 0.57 0.06 64 1010.2
20260507094531 46 129 0.0 6.0 0.00 0.57 0.06 65 1010.4
20260507093030 46 151 0.0 3.0 0.00 0.57 0.06 68 1010.3
20260507091535 46 113 1.0 4.0 0.00 0.57 0.06 66 1009.9
20260507090035 46 0 1.0 7.0 0.00 0.57 0.06 66 1009.7
20260507084531 46 119 0.0 5.0 0.00 0.57 0.06 66 1009.7
20260507083032 46 0 0.0 0.0 0.00 0.57 0.06 66 1009.7
20260507081530 47 0 0.0 3.0 0.00 0.57 0.06 66 1009.9
20260507080031 47 0 0.0 4.0 0.00 0.57 0.06 65 1010.3
20260507074528 47 0 0.0 1.0 0.00 0.57 0.06 67 1010.4
20260507073031 47 0 0.0 1.0 0.02 0.57 0.06 68 1010.5
20260507071528 47 0 0.0 0.0 0.03 0.57 0.06 68 1010.5
20260507070033 47 0 0.0 1.0 0.04 0.57 0.06 69 1010.6
20260507064532 47 0 0.0 1.0 0.06 0.57 0.06 70 1010.7
20260507063030 47 0 0.0 0.0 0.04 0.55 0.04 70 1010.4
20260507061531 48 0 0.0 0.0 0.03 0.54 0.03 70 1010.5
20260507060030 48 0 0.0 1.0 0.02 0.52 0.02 70 1010.3
20260507054537 48 110 0.0 1.0 0.00 0.51 0.00 70 1010.4
20260507053030 48 0 0.0 1.0 0.00 0.51 0.00 69 1010.5
20260507051531 48 0 0.0 0.0 0.00 0.51 0.00 68 1010.4
20260507050029 49 0 0.0 1.0 0.00 0.51 0.00 67 1010.6
20260507044530 49 0 0.0 2.0 0.00 0.51 0.00 66 1010.4
20260507043027 49 133 2.0 7.0 0.00 0.51 0.00 65 1009.3
20260507041532 49 0 0.0 4.0 0.00 0.51 0.00 65 1009.6
20260507040033 49 0 0.0 1.0 0.00 0.51 0.00 65 1010.3
20260507034531 49 0 0.0 1.0 0.00 0.51 0.51 65 1010.4
20260507033030 49 0 0.0 5.0 0.00 0.51 0.51 65 1010.3
20260507031530 49 0 0.0 2.0 0.00 0.51 0.51 65 1009.9
20260507030031 49 0 0.0 4.0 0.00 0.51 0.51 66 1010.0
20260507024532 50 245 0.0 4.0 0.00 0.51 0.51 66 1010.0
20260507023030 50 126 0.0 4.0 0.00 0.51 0.51 67 1010.1
20260507021530 50 93 1.0 6.0 0.00 0.51 0.51 67 1010.2
20260507020036 50 110 1.0 6.0 0.00 0.51 0.51 68 1010.4
20260507014531 50 108 5.0 11.0 0.00 0.51 0.51 67 1010.4
20260507013042 51 131 2.0 7.0 0.00 0.51 0.51 67 1010.4
20260507011532 51 144 1.0 5.0 0.00 0.51 0.51 68 1010.1
20260507010034 51 105 0.0 7.0 0.00 0.51 0.51 68 1009.9
20260507004529 52 0 0.0 5.0 0.00 0.51 0.51 68 1009.6
20260507003038 52 117 0.0 5.0 0.00 0.51 0.51 67 1009.3
20260507001533 53 196 2.0 10.0 0.00 0.51 0.51 66 1009.1
20260507000033 54 235 0.0 4.0 0.00 0.51 0.51 66 1009.0